TimeCDT,TemperatureF,Dew PointF,Humidity,Sea Level PressureIn,VisibilityMPH,Wind Direction,Wind SpeedMPH,Gust SpeedMPH,PrecipitationIn,Events,Conditions,WindDirDegrees,DateUTC
12:15 AM,51.4,46.4,83,29.98,10.0,East,8.1,-,N/A,,Overcast,100,2012-10-23 05:15:00
12:35 AM,50.9,46.2,84,29.98,10.0,East,5.8,-,N/A,,Overcast,90,2012-10-23 05:35:00
1:15 AM,50.9,45.5,82,29.98,10.0,East,5.8,-,N/A,,Overcast,90,2012-10-23 06:15:00
1:35 AM,50.5,45.5,83,29.97,10.0,ENE,8.1,-,N/A,,Overcast,70,2012-10-23 06:35:00
1:55 AM,50.2,45.3,83,29.96,10.0,ENE,8.1,-,N/A,,Overcast,60,2012-10-23 06:55:00
2:15 AM,50.4,45.5,83,29.96,10.0,Calm,Calm,-,N/A,,Overcast,0,2012-10-23 07:15:00
2:55 AM,50.5,45.5,83,29.96,10.0,East,3.5,-,N/A,,Overcast,80,2012-10-23 07:55:00
3:15 AM,50.2,45.7,85,29.95,10.0,ENE,4.6,-,N/A,,Overcast,70,2012-10-23 08:15:00
3:35 AM,50.0,45.5,85,29.95,10.0,East,6.9,-,N/A,,Overcast,80,2012-10-23 08:35:00
3:55 AM,50.0,44.8,82,29.94,10.0,East,8.1,-,N/A,,Overcast,80,2012-10-23 08:55:00
4:15 AM,50.0,44.8,82,29.95,10.0,East,9.2,-,N/A,,Overcast,80,2012-10-23 09:15:00
4:35 AM,50.0,44.8,82,29.94,10.0,East,9.2,-,N/A,,Overcast,90,2012-10-23 09:35:00
4:55 AM,49.6,44.8,83,29.93,10.0,East,10.4,-,N/A,,Overcast,80,2012-10-23 09:55:00
5:15 AM,49.1,44.6,84,29.93,10.0,East,9.2,-,N/A,,Overcast,80,2012-10-23 10:15:00
5:35 AM,48.4,44.6,87,29.93,10.0,East,9.2,-,N/A,,Scattered Clouds,80,2012-10-23 10:35:00
5:55 AM,48.2,44.6,87,29.93,10.0,East,9.2,-,N/A,,Scattered Clouds,80,2012-10-23 10:55:00
6:35 AM,48.2,45.0,89,29.93,10.0,East,10.4,-,N/A,,Overcast,80,2012-10-23 11:35:00
6:55 AM,48.0,45.1,90,29.94,10.0,East,6.9,-,N/A,,Overcast,100,2012-10-23 11:55:00
7:15 AM,48.0,45.5,91,29.94,10.0,East,8.1,-,N/A,,Overcast,100,2012-10-23 12:15:00
7:35 AM,47.7,46.2,95,29.93,5.0,East,11.5,-,N/A,,Overcast,100,2012-10-23 12:35:00
7:55 AM,47.5,46.8,97,29.95,3.0,ESE,4.6,-,N/A,,Overcast,120,2012-10-23 12:55:00
8:15 AM,47.5,47.3,99,29.95,1.2,ESE,8.1,-,N/A,,Overcast,110,2012-10-23 13:15:00
8:35 AM,47.7,47.5,99,29.94,0.5,ESE,9.2,-,N/A,Fog,Fog,110,2012-10-23 13:35:00
8:55 AM,48.2,47.8,99,29.93,0.2,ESE,12.7,17.3,N/A,Fog,Fog,120,2012-10-23 13:55:00
9:15 AM,48.2,48.2,100,29.95,0.2,ESE,5.8,-,N/A,Fog,Fog,120,2012-10-23 14:15:00
9:35 AM,48.7,48.7,100,29.93,0.2,East,12.7,-,N/A,Fog,Fog,100,2012-10-23 14:35:00
9:55 AM,49.1,49.1,100,29.93,0.2,East,12.7,-,N/A,Fog,Fog,100,2012-10-23 14:55:00
10:15 AM,49.1,49.1,100,29.93,0.5,ESE,11.5,-,N/A,Fog,Fog,110,2012-10-23 15:15:00
10:55 AM,49.6,49.6,100,29.92,0.2,ESE,10.4,-,N/A,Fog,Fog,120,2012-10-23 15:55:00
11:15 AM,50.0,50.0,100,29.92,0.2,ESE,12.7,18.4,N/A,Fog,Fog,120,2012-10-23 16:15:00
11:35 AM,50.2,50.2,100,29.92,0.2,SE,10.4,-,N/A,Fog,Fog,130,2012-10-23 16:35:00
11:55 AM,50.4,50.4,100,29.92,0.2,SE,13.8,-,N/A,Fog,Fog,130,2012-10-23 16:55:00
12:15 PM,50.5,50.5,100,29.92,0.2,ESE,8.1,-,N/A,Fog,Fog,120,2012-10-23 17:15:00
12:35 PM,50.9,50.9,100,29.91,0.2,ESE,8.1,-,N/A,Fog,Fog,110,2012-10-23 17:35:00
12:55 PM,51.1,51.1,100,29.90,0.5,ESE,8.1,-,N/A,Fog,Fog,120,2012-10-23 17:55:00
1:15 PM,51.6,51.6,100,29.89,0.2,ESE,11.5,-,N/A,Fog,Fog,120,2012-10-23 18:15:00
1:35 PM,51.8,51.8,100,29.88,0.2,ESE,8.1,-,N/A,Fog,Fog,120,2012-10-23 18:35:00
1:55 PM,52.0,52.0,100,29.88,0.5,SE,9.2,-,N/A,Rain,Rain,140,2012-10-23 18:55:00
2:15 PM,52.7,52.7,100,29.88,0.8,SSE,12.7,-,N/A,,Overcast,150,2012-10-23 19:15:00
2:55 PM,53.2,53.1,99,29.86,3.0,SE,10.4,-,N/A,,Overcast,130,2012-10-23 19:55:00
3:15 PM,53.4,53.1,99,29.86,2.5,SE,9.2,-,N/A,,Overcast,130,2012-10-23 20:15:00
3:35 PM,53.2,53.1,99,29.86,1.0,SE,8.1,-,N/A,,Overcast,140,2012-10-23 20:35:00
3:55 PM,53.6,53.2,99,29.86,1.0,ESE,8.1,-,N/A,,Overcast,120,2012-10-23 20:55:00
4:15 PM,53.6,53.6,100,29.86,1.2,SE,6.9,-,N/A,,Overcast,130,2012-10-23 21:15:00
4:35 PM,53.6,53.6,100,29.86,1.2,SE,10.4,-,N/A,,Overcast,130,2012-10-23 21:35:00
4:55 PM,53.6,53.6,100,29.86,0.8,ESE,9.2,-,N/A,,Overcast,120,2012-10-23 21:55:00
5:15 PM,54.0,53.8,99,29.86,1.0,SE,10.4,-,N/A,,Overcast,130,2012-10-23 22:15:00
5:35 PM,54.0,53.8,99,29.85,0.8,ESE,13.8,-,N/A,,Overcast,120,2012-10-23 22:35:00
5:55 PM,54.0,54.0,100,29.86,0.5,ESE,12.7,-,N/A,Fog,Fog,120,2012-10-23 22:55:00
6:15 PM,54.0,54.0,100,29.86,1.0,ESE,8.1,-,N/A,,Overcast,120,2012-10-23 23:15:00
6:35 PM,54.1,54.1,100,29.87,1.0,SE,9.2,-,N/A,,Overcast,130,2012-10-23 23:35:00
6:55 PM,54.1,54.1,100,29.88,1.0,SE,8.1,-,N/A,,Overcast,130,2012-10-23 23:55:00
7:15 PM,54.1,54.1,100,29.88,1.2,ESE,10.4,-,N/A,,Overcast,120,2012-10-24 00:15:00
7:35 PM,54.5,54.5,100,29.88,1.5,ESE,9.2,-,N/A,,Overcast,120,2012-10-24 00:35:00
7:55 PM,54.5,54.5,100,29.88,1.0,SE,9.2,-,N/A,,Overcast,140,2012-10-24 00:55:00
8:15 PM,54.7,54.7,100,29.90,0.8,SSE,8.1,-,N/A,,Overcast,160,2012-10-24 01:15:00
8:35 PM,54.7,54.7,100,29.90,0.8,SSE,5.8,-,N/A,,Overcast,160,2012-10-24 01:35:00
8:55 PM,54.7,54.7,100,29.90,1.0,SE,9.2,-,0.01,,Overcast,140,2012-10-24 01:55:00
9:15 PM,55.0,55.0,100,29.88,1.0,SE,11.5,-,N/A,,Overcast,130,2012-10-24 02:15:00
9:35 PM,55.0,55.0,100,29.88,1.0,SE,13.8,18.4,N/A,,Overcast,130,2012-10-24 02:35:00
9:55 PM,55.0,55.0,100,29.88,0.8,SE,12.7,-,N/A,,Overcast,140,2012-10-24 02:55:00
10:15 PM,55.0,55.0,100,29.88,0.8,SE,9.2,-,N/A,,Overcast,130,2012-10-24 03:15:00
10:35 PM,55.0,55.0,100,29.88,0.5,SE,8.1,-,N/A,Fog,Fog,140,2012-10-24 03:35:00
11:35 PM,55.0,55.0,100,29.86,0.2,SE,10.4,-,N/A,Fog,Fog,130,2012-10-24 04:35:00
11:55 PM,55.2,55.2,100,29.87,0.2,SSE,9.2,-,N/A,Fog,Fog,150,2012-10-24 04:55:00